Погода в Усть-Куте

Россия / Иркутская область     56°47′34″N   105°46′32″E
темп.,
°C
ветер,
м/с
пор.,
м/с
влажн.,
%
обл.,
%
осадки,
мм/ч
давл.,
гПа
погр.,
м
5 декабря, вс
вс523:00−5зюз61483100 0.1 10131242
02:00−5зюз51390100 0.3 10131304
05:00−5з61481100 0.3 10141354
08:00−7з51386100 0.4 10171269
11:00−8з61285100 0.4 10201515
14:00−9з41285100 0.6 10221568
17:00−9з51285100 0.3 10231168
20:00−9зюз51182100 0.3 1022891
6 декабря, пн
пн623:00−8зюз41093100 0.3 1020974
02:00−7юз31195100 1.5 1018927
05:00−5зюз51392100 0.8 10141013
08:00−5зюз51295100 2.3 1013987
11:00−4з4995100 1.7 1014954
14:00−4зюз3893100 2.6 1014768
17:00−4юз2897100 0.7 1015460
20:00−5ю1298100 1.5 101556
7 декабря, вт
вт723:00−3юз299699 1.1 1015540
02:00−3зюз4119196 1.3 1016674
05:00−3зюз3109197 0.0 1017671
08:00−5юз2395100 0.1 101968
11:00−4ю249795 0.1 1019164
14:00−2ю3993100 0.3 1016577
17:00−3ю2796100 0.7 1014319
20:00−5ю2495100 0.7 101381
8 декабря, ср
ср823:00−1юз41382100 0.0 1013747
02:00−2юз41287100 0.0 1013736
05:00−2юз41287100 0.0 1013658
08:00−3зюз51288100 0.0 1014899
11:00−4з6128285 0.1 10171225
14:00−7з61184100 0.3 10211174
17:00−12з51186100 0.1 1026870
20:00−15з41188100 0.1 1029730
9 декабря, чт
чт923:00−16зюз4990100 0.1 1031612
02:00−20ююз2299100 0.1 103235
05:00−19ююз1399100 0.1 103369
08:00−17юз1597100 0.3 1032243
11:00−15зюз2894100 0.3 1034924
14:00−14з4885100 0.5 10341185
17:00−17з3791100 0.1 1037355
20:00−19зюз3892100 0.1 1039260